Location: ??????
(56.0120°N, 39.1740°E)
Time: 07:27:15
(UTC+00:00)

Cosmos 1092 Rocket - Pass Details

Date: 14 April 2026
Orbit: 952 x 995 km, 83.0° (Epoch: 12 May)

Event Time Altitude Azimuth Distance (km) Brightness Sun altitude
Rises 22:44:18 0° 348° (NNW) 3,667 7.9 -22.2°
Reaches altitude 10° 22:46:51 10° 352° (N) 2,711 7.1 -22.1°
Maximum altitude 22:53:01 66° 74° (ENE) 1,041 4.2 -21.7°
Enters shadow 22:56:57 23° 152° (SSE) 1,906 5.2 -21.5°
